TimeMST,TemperatureF,Dew PointF,Humidity,Sea Level PressureIn,VisibilityMPH,Wind Direction,Wind SpeedMPH,Gust SpeedMPH,PrecipitationIn,Events,Conditions,WindDirDegrees,DateUTC
12:56 AM,30.0,19.0,64,30.27,12.0,SSW,15.0,-,N/A,,Clear,200,2013-12-15 07:56:00
1:56 AM,29.7,19.9,67,30.26,12.0,SSW,11.5,-,N/A,,Clear,200,2013-12-15 08:56:00
2:56 AM,30.2,19.9,66,30.25,12.0,SW,13.8,19.6,N/A,,Clear,220,2013-12-15 09:56:00
3:56 AM,30.7,19.4,63,30.24,12.0,SW,13.8,20.7,N/A,,Clear,220,2013-12-15 10:56:00
4:56 AM,32.4,18.5,57,30.25,12.0,SW,16.1,-,N/A,,Clear,220,2013-12-15 11:56:00
5:56 AM,32.0,18.3,57,30.25,12.0,SW,13.8,-,N/A,,Clear,220,2013-12-15 12:56:00
6:56 AM,30.2,18.5,62,30.25,12.0,SSW,10.4,-,N/A,,Clear,210,2013-12-15 13:56:00
7:56 AM,34.7,17.1,49,30.25,12.0,WSW,15.0,-,N/A,,Clear,240,2013-12-15 14:56:00
8:56 AM,38.8,16.2,40,30.26,12.0,WSW,12.7,19.6,N/A,,Clear,240,2013-12-15 15:56:00
9:56 AM,42.4,15.8,34,30.26,12.0,West,12.7,19.6,N/A,,Clear,260,2013-12-15 16:56:00
10:56 AM,45.9,16.2,30,30.24,12.0,West,15.0,-,N/A,,Clear,260,2013-12-15 17:56:00
11:56 AM,49.3,15.6,26,30.21,12.0,West,12.7,-,N/A,,Clear,260,2013-12-15 18:56:00
12:56 PM,51.6,15.8,24,30.19,12.0,West,8.1,-,N/A,,Clear,270,2013-12-15 19:56:00
1:56 PM,53.1,14.7,22,30.17,12.0,Variable,3.5,-,N/A,,Clear,0,2013-12-15 20:56:00
2:56 PM,54.0,13.1,20,30.17,12.0,Variable,1.2,-,N/A,,Clear,0,2013-12-15 21:56:00
3:56 PM,54.0,12.6,19,30.18,12.0,Variable,1.2,-,N/A,,Clear,0,2013-12-15 22:56:00
4:56 PM,43.5,12.4,28,30.22,12.0,WSW,3.5,-,N/A,,Clear,250,2013-12-15 23:56:00
5:56 PM,36.1,13.3,39,30.25,12.0,West,4.6,-,N/A,,Clear,260,2013-12-16 00:56:00
6:56 PM,37.0,13.6,38,30.26,12.0,West,3.5,-,N/A,,Clear,270,2013-12-16 01:56:00
7:56 PM,33.8,13.5,43,30.26,12.0,WNW,3.5,-,N/A,,Clear,290,2013-12-16 02:56:00
8:56 PM,38.7,14.0,37,30.23,12.0,West,10.4,-,N/A,,Clear,260,2013-12-16 03:56:00
9:56 PM,39.6,17.1,40,30.23,12.0,WSW,12.7,-,N/A,,Clear,250,2013-12-16 04:56:00
10:56 PM,36.3,18.3,48,30.23,12.0,WSW,11.5,-,N/A,,Clear,250,2013-12-16 05:56:00
11:56 PM,35.8,18.3,49,30.21,12.0,WSW,6.9,-,N/A,,Clear,250,2013-12-16 06:56:00